Location: Bougoura
(13.1861°N, 5.0773°W)
Time: 01:33:06
(UTC+00:00)

Cosmos 1603 - Pass Details

Date: 18 September 2020
Orbit: 832 x 858 km, 71.0° (Epoch: 21 October)

Event Time Altitude Azimuth Distance (km) Brightness Sun altitude
Rises 20:13:43 0° 340° (NNW) 3,382 7.2 -28.6°
Reaches altitude 10° 20:16:10 10° 339° (NNW) 2,444 6.4 -29.2°
Enters shadow 20:21:09 67° 302° (WNW) 899 3.9 -30.4°
